St. Johnsbury, VT

5:36 AM EST on January 19, 2018 (GMT -0500)
St. Johnsbury

Weather History for K1V4 - March, 2014

Change the Weather History Date:

Tuesday, March 11, 2014

  Actual Average Record
Temperature  
Mean Temperature 33 °F 28 °F  
Max Temperature 40 °F 39 °F 63 °F (1977)
Min Temperature 25 °F 17 °F -13 °F (1939)
Degree Days  
Heating Degree Days 32 37  
Month to date heating degree days 551 431  
Since 1 July heating degree days 6583 6155  
Cooling Degree Days 0 0  
Month to date cooling degree days 0 0  
Year to date cooling degree days 0 0  
Moisture  
Dew Point 29 °F    
Average Humidity 80    
Maximum Humidity 100    
Minimum Humidity 59    
Precipitation  
Precipitation 0.02 in 0.07 in 0.87 in (1903)
Month to date precipitation 0.20 0.83  
Year to date precipitation 5.33 5.51  
Sea Level Pressure  
Sea Level Pressure 29.56 in    
Wind  
Wind Speed - (North)    
Max Wind Speed -    
Max Gust Speed -    
T = Trace of Precipitation, MM = Missing Value Source: NWS Daily Summary

Daily Weather History Graph

Daily Weather History Graph

Search for Another Location

Airport or City:

Trip Planner

Search our weather history database for the weather conditions in past years. The results will help you decide how hot, cold, wet, or windy it might be!

Date:

Astronomy

Mar. 11, 2014 Rise Set
Actual Time 7:07 AM EDT 6:49 PM EDT
Civil Twilight 6:38 AM EDT 7:18 PM EDT
Nautical Twilight 6:05 AM EDT 7:51 PM EDT
Astronomical Twilight 5:31 AM EDT 8:25 PM EDT
Moon 2:14 PM EDT (3/11) 4:07 AM EDT (3/11)
Length of Visible Light 12h 39m
Length of Day
11h 41m
Waxing Gibbous, 78% of the Moon is Illuminated
Mar 11
Waxing Gibbous
Mar 16
Full
Mar 23
Last Quarter
Mar 30
New
Apr 7
First Quarter

Hourly Weather History & Observations

Time (EDT) Temp. Dew Point Humidity Pressure Visibility Wind Dir Wind Speed Gust Speed Precip Events Conditions
12:54 AM 30.9 °F 30.0 °F 96% 29.50 in - North - - 0.08 in   Unknown
1:54 AM 30.9 °F 28.9 °F 92% 29.48 in - North - - 0.02 in   Unknown
2:54 AM 32.0 °F 28.9 °F 88% 29.47 in - North - - N/A   Unknown
3:54 AM 33.1 °F 28.9 °F 85% 29.45 in - North - - N/A   Unknown
4:54 AM 33.1 °F 30.0 °F 89% 29.44 in - North - - N/A   Unknown
5:54 AM 33.1 °F 30.0 °F 89% 29.45 in - North - - N/A   Unknown
6:54 AM 33.1 °F 30.0 °F 89% 29.45 in - North - - N/A   Unknown
7:54 AM 33.1 °F 30.0 °F 89% 29.48 in - North - - N/A   Unknown
8:54 AM 33.1 °F 30.9 °F 92% 29.50 in - North - - N/A   Unknown
9:54 AM 34.0 °F 30.9 °F 89% 29.52 in - North - - N/A   Unknown
10:54 AM 35.1 °F 32.0 °F 89% 29.52 in - North - - N/A   Unknown
11:54 AM 34.0 °F 32.0 °F 92% 29.54 in - North - - N/A   Unknown
12:54 PM 35.1 °F 33.1 °F 92% 29.56 in - North - - N/A   Unknown
1:54 PM 36.0 °F 33.1 °F 89% 29.56 in - North - - N/A   Unknown
2:54 PM 37.9 °F 28.9 °F 70% 29.59 in - North - - N/A   Unknown
3:54 PM 37.9 °F 28.0 °F 68% 29.61 in - North - - N/A   Unknown
4:54 PM 39.0 °F 27.0 °F 62% 29.61 in - North - - N/A   Unknown
5:54 PM 39.0 °F 27.0 °F 62% 29.63 in - North - - N/A   Unknown
6:54 PM 37.0 °F 28.0 °F 70% 29.65 in - North - - N/A   Unknown
7:54 PM 34.0 °F 27.0 °F 75% 29.69 in - North - - N/A   Unknown
8:54 PM 30.0 °F 27.0 °F 88% 29.70 in - North - - N/A   Unknown
9:54 PM 28.0 °F 26.1 °F 92% 29.71 in - North - - N/A   Unknown
10:54 PM 27.0 °F 25.0 °F 92% 29.71 in - North - - N/A   Unknown
11:54 PM 26.1 °F 24.1 °F 92% 29.73 in - North - - N/A   Unknown